"Datum/tijd (MEZT)";"astronomisch [cm]";"waterstand [cm]";"verwachte opzet";"verwachting RWS"
2024-04-17 13:00;61;80;14;75
2024-04-17 13:10;59;75;13;72
2024-04-17 13:20;57;73;14;71
2024-04-17 13:30;54;72;13;67
2024-04-17 13:40;51;69;14;65
2024-04-17 13:50;48;66;14;62
2024-04-17 14:00;45;64;14;59
2024-04-17 14:10;41;61;14;55
2024-04-17 14:20;37;56;14;51
2024-04-17 14:30;33;52;14;47
2024-04-17 14:40;29;48;14;43
2024-04-17 14:50;24;42;14;38
2024-04-17 15:00;19;38;15;34
2024-04-17 15:10;15;35;15;30
2024-04-17 15:20;10;30;16;26
2024-04-17 15:30;5;25;18;23
2024-04-17 15:40;1;21;18;19
2024-04-17 15:50;-3;18;18;15
2024-04-17 16:00;-8;12;20;12
2024-04-17 16:10;-12;10;20;8
2024-04-17 16:20;-16;8;20;4
2024-04-17 16:30;-20;1;20;0
2024-04-17 16:40;-23;-5;19;-4
2024-04-17 16:50;-27;-7;19;-8
2024-04-17 17:00;-30;-9;9;-21
2024-04-17 17:10;-33;-12;9;-24
2024-04-17 17:20;-36;-16;10;-26
2024-04-17 17:30;-38;-19;9;-29
2024-04-17 17:40;-40;-23;9;-31
2024-04-17 17:50;-42;-29;9;-33
2024-04-17 18:00;-44;-31;9;-35
2024-04-17 18:10;-45;-32;8;-37
2024-04-17 18:20;-46;-35;7;-39
2024-04-17 18:30;-48;-38;8;-40
2024-04-17 18:40;-49;-40;8;-41
2024-04-17 18:50;-50;-40;7;-43
2024-04-17 19:00;-51;-41;8;-43
2024-04-17 19:10;-52;-43;8;-44
2024-04-17 19:20;-53;-44;9;-44
2024-04-17 19:30;-54;-42;10;-44
2024-04-17 19:40;-54;-42;10;-44
2024-04-17 19:50;-53;-42;10;-43
2024-04-17 20:00;-52;-42;10;-42
2024-04-17 20:10;-51;-43;11;-40
2024-04-17 20:20;-49;-42;12;-37
2024-04-17 20:30;-47;-40;12;-35
2024-04-17 20:40;-45;-38;11;-34
2024-04-17 20:50;-42;-37;11;-31
2024-04-17 21:00;-39;-35;11;-28
2024-04-17 21:10;-36;-31;10;-26
2024-04-17 21:20;-33;-29;9;-24
2024-04-17 21:30;-30;-25;10;-20
2024-04-17 21:40;-27;-21;10;-17
2024-04-17 21:50;-23;-18;9;-14
2024-04-17 22:00;-19;-14;9;-10
2024-04-17 22:10;-16;-9;9;-7
2024-04-17 22:20;-12;-4;9;-3
2024-04-17 22:30;-8;0;10;2
2024-04-17 22:40;-4;4;11;7
2024-04-17 22:50;0;10;13;13
2024-04-17 23:00;4;17;14;18
2024-04-17 23:10;7;22;16;23
2024-04-17 23:20;11;27;17;28
2024-04-17 23:30;14;33;18;32
2024-04-17 23:40;18;36;19;37
2024-04-17 23:50;21;38;19;40
2024-04-18 00:00;24;41;19;43
2024-04-18 00:10;27;45;19;46
2024-04-18 00:20;30;46;18;48
2024-04-18 00:30;32;47;18;50
2024-04-18 00:40;34;49;16;50
2024-04-18 00:50;34;48;15;49
2024-04-18 01:00;34;47;13;47
2024-04-18 01:10;34;47;10;44
2024-04-18 01:20;32;45;10;42
2024-04-18 01:30;29;40;10;39
2024-04-18 01:40;26;37;10;36
2024-04-18 01:50;23;34;10;33
2024-04-18 02:00;19;31;11;30
2024-04-18 02:10;15;28;11;26
2024-04-18 02:20;10;24;12;22
2024-04-18 02:30;6;20;12;18
2024-04-18 02:40;2;17;12;14
2024-04-18 02:50;-3;15;14;11
2024-04-18 03:00;-7;9;14;7
2024-04-18 03:10;-10;5;13;3
2024-04-18 03:20;-14;4;12;-2
2024-04-18 03:30;-18;0;11;-7
2024-04-18 03:40;-21;-5;10;-11
2024-04-18 03:50;-24;-7;9;-15
2024-04-18 04:00;-27;-10;8;-19
2024-04-18 04:10;-29;-16;6;-23
2024-04-18 04:20;-32;-18;6;-26
2024-04-18 04:30;-34;-18;4;-30
2024-04-18 04:40;-36;-23;3;-33
2024-04-18 04:50;-39;-27;3;-36
2024-04-18 05:00;-41;-26;3;-38
2024-04-18 05:10;-43;-29;3;-40
2024-04-18 05:20;-45;-32;3;-42
2024-04-18 05:30;-47;-32;4;-43
2024-04-18 05:40;-50;-34;7;-43
2024-04-18 05:50;-52;-36;7;-45
2024-04-18 06:00;-53;-35;7;-46
2024-04-18 06:10;-55;-35;7;-48
2024-04-18 06:20;-56;-39;6;-50
2024-04-18 06:30;-58;-43;6;-52
2024-04-18 06:40;-59;-45;5;-54
2024-04-18 06:50;-60;-48;3;-57
2024-04-18 07:00;-61;-53;8;-53
2024-04-18 07:10;-62;-56;6;-56
2024-04-18 07:20;-62;-57;5;-57
2024-04-18 07:30;-63;-59;4;-59
2024-04-18 07:40;-63;-63;3;-60
2024-04-18 07:50;-63;-63;2;-61
2024-04-18 08:00;-62;-61;1;-61
2024-04-18 08:10;-61;-63;0;-61
2024-04-18 08:20;-60;-62;0;-60
2024-04-18 08:30;-58;-60;-1;-59
2024-04-18 08:40;-55;-60;-2;-57
2024-04-18 08:50;-52;-59;-4;-56
2024-04-18 09:00;-49;-55;-5;-54
2024-04-18 09:10;-45;-52;-6;-51
2024-04-18 09:20;-41;-49;-7;-48
2024-04-18 09:30;-37;-45;-8;-45
2024-04-18 09:40;-33;-43;-8;-41
2024-04-18 09:50;-28;-39;-10;-38
2024-04-18 10:00;-24;-30;-10;-34
2024-04-18 10:10;-19;-21;-10;-29
2024-04-18 10:20;-13;-15;-11;-24
2024-04-18 10:30;-8;-11;-10;-18
2024-04-18 10:40;-2;-4;-10;-12
2024-04-18 10:50;4;5;-10;-6
2024-04-18 11:00;10;12;-9;1
2024-04-18 11:10;16;17;-7;9
2024-04-18 11:20;23;27;-6;17
2024-04-18 11:30;28;37;-2;26
2024-04-18 11:40;34;;1;35
2024-04-18 11:50;40;54;3;43
2024-04-18 12:00;45;60;7;52
2024-04-18 12:10;50;64;8;58
2024-04-18 12:20;55;67;9;64
2024-04-18 12:30;59;69;9;68
2024-04-18 12:40;63;71;8;71
2024-04-18 12:50;66;73;7;73
2024-04-18 13:00;69;75;8;77
2024-04-18 13:10;71;76;7;78
2024-04-18 13:20;72;79;6;78
2024-04-18 13:30;72;82;6;78
2024-04-18 13:40;72;79;6;78
2024-04-18 13:50;71;78;4;75
2024-04-18 14:00;70;78;3;73
2024-04-18 14:10;68;76;3;71
2024-04-18 14:20;66;73;3;69
2024-04-18 14:30;63;71;4;67
2024-04-18 14:40;60;69;5;65
2024-04-18 14:50;57;64;5;62
2024-04-18 15:00;53;61;5;58
2024-04-18 15:10;49;61;6;55
2024-04-18 15:20;45;58;6;51
2024-04-18 15:30;41;52;5;46
2024-04-18 15:40;37;52;4;41
2024-04-18 15:50;32;46;5;37
2024-04-18 16:00;28;37;5;33
2024-04-18 16:10;23;33;4;27
2024-04-18 16:20;19;30;2;21
2024-04-18 16:30;15;24;2;17
2024-04-18 16:40;11;18;0;11
2024-04-18 16:50;7;14;-3;4
2024-04-18 17:00;2;8;1;3
2024-04-18 17:10;-2;4;0;-2
2024-04-18 17:20;-6;1;0;-6
2024-04-18 17:30;-9;-4;-2;-11
2024-04-18 17:40;-13;-11;-3;-16
2024-04-18 17:50;-17;-14;-4;-21
2024-04-18 18:00;-20;-17;-4;-24
2024-04-18 18:10;-24;-24;-3;-27
2024-04-18 18:20;-27;-27;-3;-30
2024-04-18 18:30;-29;-27;-3;-32
2024-04-18 18:40;-32;-31;-3;-35
2024-04-18 18:50;-34;-36;-3;-37
2024-04-18 19:00;-36;-39;-3;-39
2024-04-18 19:10;-38;-42;-4;-42
2024-04-18 19:20;-40;-46;-4;-44
2024-04-18 19:30;-42;-47;-4;-46
2024-04-18 19:40;-44;-49;-5;-49
2024-04-18 19:50;-47;-53;-4;-51
2024-04-18 20:00;-49;-54;-3;-52
2024-04-18 20:10;-51;-54;-3;-54
2024-04-18 20:20;-53;-56;-3;-56
2024-04-18 20:30;-54;-57;-4;-58
2024-04-18 20:40;-55;-59;-5;-60
2024-04-18 20:50;-56;-61;-5;-61
2024-04-18 21:00;-56;-62;-6;-62
2024-04-18 21:10;-56;-62;-7;-63
2024-04-18 21:20;-56;-64;-7;-63
2024-04-18 21:30;-56;-65;-7;-63
2024-04-18 21:40;-55;-67;-8;-63
2024-04-18 21:50;-53;-66;-8;-61
2024-04-18 22:00;-52;-65;-8;-60
2024-04-18 22:10;-50;-64;-8;-58
2024-04-18 22:20;-48;-61;-8;-56
2024-04-18 22:30;-45;-55;-9;-54
2024-04-18 22:40;-42;-48;-9;-51
2024-04-18 22:50;-39;-40;-8;-47
2024-04-18 23:00;-35;-32;-8;-43
2024-04-18 23:10;-32;-27;-7;-39
2024-04-18 23:20;-27;-24;-7;-34
2024-04-18 23:30;-23;-21;-5;-28
2024-04-18 23:40;-19;-15;-2;-21
2024-04-18 23:50;-14;-7;2;-12
2024-04-19 00:00;-9;1;5;-4
2024-04-19 00:10;-3;13;9;6
2024-04-19 00:20;3;23;14;17
2024-04-19 00:30;9;30;17;26
2024-04-19 00:40;15;41;20;35
2024-04-19 00:50;21;51;21;42
2024-04-19 01:00;27;57;26;53
2024-04-19 01:10;32;64;25;57
2024-04-19 01:20;37;70;24;61
2024-04-19 01:30;41;68;24;65
2024-04-19 01:40;44;69;23;67
2024-04-19 01:50;45;75;22;67
2024-04-19 02:00;46;73;22;68
2024-04-19 02:10;45;70;22;67
2024-04-19 02:20;43;72;22;65
2024-04-19 02:30;40;72;24;64
2024-04-19 02:40;37;70;25;62
2024-04-19 02:50;33;67;27;60
2024-04-19 03:00;28;65;30;58
2024-04-19 03:10;24;63;32;56
2024-04-19 03:20;20;58;33;53
2024-04-19 03:30;15;55;35;50
2024-04-19 03:40;11;54;35;46
2024-04-19 03:50;6;51;37;43
2024-04-19 04:00;2;48;38;40
2024-04-19 04:10;-2;46;38;36
2024-04-19 04:20;-6;42;39;33
2024-04-19 04:30;-9;38;39;30
2024-04-19 04:40;-13;37;39;26
2024-04-19 04:50;-16;32;39;23
2024-04-19 05:00;-19;28;40;21
2024-04-19 05:10;-22;27;40;18
2024-04-19 05:20;-24;25;38;14
2024-04-19 05:30;-27;22;39;12
2024-04-19 05:40;-29;21;38;9
2024-04-19 05:50;-31;20;37;6
2024-04-19 06:00;-34;18;52;18
2024-04-19 06:10;-36;18;54;18
2024-04-19 06:20;-38;17;55;17
2024-04-19 06:30;-40;15;56;16
2024-04-19 06:40;-43;13;58;15
2024-04-19 06:50;-45;11;58;13
2024-04-19 07:00;-46;9;57;11
2024-04-19 07:10;-48;8;57;9
2024-04-19 07:20;-50;4;55;5
2024-04-19 07:30;-52;0;55;3
2024-04-19 07:40;-54;-3;55;1
2024-04-19 07:50;-56;-6;55;-1
2024-04-19 08:00;-58;-12;55;-3
2024-04-19 08:10;-60;-14;55;-5
2024-04-19 08:20;-62;-17;56;-6
2024-04-19 08:30;-64;-22;57;-7
2024-04-19 08:40;-65;-23;57;-8
2024-04-19 08:50;-66;-22;57;-9
2024-04-19 09:00;-67;-25;57;-10
2024-04-19 09:10;-67;-26;57;-10
2024-04-19 09:20;-67;-23;57;-10
2024-04-19 09:30;-66;-23;56;-10
2024-04-19 09:40;-65;-22;56;-9
2024-04-19 09:50;-64;-20;57;-7
2024-04-19 10:00;-62;-19;57;-5
2024-04-19 10:10;-60;-20;58;-2
2024-04-19 10:20;-57;-9;58;1
2024-04-19 10:30;-54;0;59;5
2024-04-19 10:40;-51;2;59;8
2024-04-19 10:50;-47;5;60;13
2024-04-19 11:00;-42;14;54;12
2024-04-19 11:10;-37;21;57;20
2024-04-19 11:20;-31;25;57;26
2024-04-19 11:30;-24;34;58;34
2024-04-19 11:40;-17;44;58;41
2024-04-19 11:50;-10;49;61;51
2024-04-19 12:00;-2;60;62;60
2024-04-19 12:10;6;76;64;70
2024-04-19 12:20;14;88;67;81
2024-04-19 12:30;22;95;71;93
2024-04-19 12:40;30;110;74;104
2024-04-19 12:50;38;119;76;114
2024-04-19 13:00;46;119;76;122
2024-04-19 13:10;53;125;77;130
2024-04-19 13:20;60;131;75;135
2024-04-19 13:30;66;135;75;141
2024-04-19 13:40;72;141;73;145
2024-04-19 13:50;76;149;72;148
2024-04-19 14:00;79;147;69;148
2024-04-19 14:10;82;148;67;149
2024-04-19 14:20;83;155;67;150
2024-04-19 14:30;83;150;68;151
2024-04-19 14:40;82;137;67;149
2024-04-19 14:50;81;140;69;150
2024-04-19 15:00;79;152;71;150
2024-04-19 15:10;76;145;73;149
2024-04-19 15:20;73;141;75;148
2024-04-19 15:30;70;154;78;148
2024-04-19 15:40;67;150;79;146
2024-04-19 15:50;63;136;81;144
2024-04-19 16:00;59;137;85;144
2024-04-19 16:10;55;142;87;142
2024-04-19 16:20;51;136;87;138
2024-04-19 16:30;47;128;89;136
2024-04-19 16:40;43;127;90;133
2024-04-19 16:50;38;131;92;130
2024-04-19 17:00;34;126;92;126
2024-04-19 17:10;30;120;90;120
2024-04-19 17:20;25;118;93;118
2024-04-19 17:30;21;111;92;113
2024-04-19 17:40;17;110;91;108
2024-04-19 17:50;13;113;90;103
2024-04-19 18:00;9;104;88;97
2024-04-19 18:10;4;91;87;91
2024-04-19 18:20;0;91;85;85
2024-04-19 18:30;-4;85;84;80
2024-04-19 18:40;-8;72;83;75
2024-04-19 18:50;-12;69;82;70
2024-04-19 19:00;-15;67;81;66
2024-04-19 19:10;-18;53;79;61
2024-04-19 19:20;-22;50;80;58
2024-04-19 19:30;-25;52;79;54
2024-04-19 19:40;-28;45;79;51
2024-04-19 19:50;-30;37;78;48
2024-04-19 20:00;-33;40;78;45
2024-04-19 20:10;-37;38;80;43
2024-04-19 20:20;-40;30;82;42
2024-04-19 20:30;-43;32;83;40
2024-04-19 20:40;-46;35;85;39
2024-04-19 20:50;-50;24;87;37
2024-04-19 21:00;-53;18;88;35
2024-04-19 21:10;-56;24;89;33
2024-04-19 21:20;-58;24;89;31
2024-04-19 21:30;-61;20;90;29
2024-04-19 21:40;-63;23;91;28
2024-04-19 21:50;-64;22;91;27
2024-04-19 22:00;-65;16;91;26
2024-04-19 22:10;-66;16;92;26
2024-04-19 22:20;-67;19;92;25
2024-04-19 22:30;-67;17;91;24
2024-04-19 22:40;-66;13;90;24
2024-04-19 22:50;-65;16;88;23
2024-04-19 23:00;-64;21;86;22
2024-04-19 23:10;-62;20;84;22
2024-04-19 23:20;-60;15;81;21
2024-04-19 23:30;-57;17;78;21
2024-04-19 23:40;-54;20;76;22
2024-04-19 23:50;-50;21;72;22
2024-04-20 00:00;-46;19;68;22
2024-04-20 00:10;-42;20;65;23
2024-04-20 00:20;-36;22;62;26
2024-04-20 00:30;-30;26;58;28
2024-04-20 00:40;-24;31;56;32
2024-04-20 00:50;-16;34;53;37
2024-04-20 01:00;-8;43;46;38
2024-04-20 01:10;0;52;47;47
2024-04-20 01:20;9;53;49;58
2024-04-20 01:30;18;66;51;69
2024-04-20 01:40;27;80;54;81
2024-04-20 01:50;35;80;59;94
2024-04-20 02:00;43;90;60;103
2024-04-20 02:10;49;110;62;111
2024-04-20 02:20;54;118;63;117
2024-04-20 02:30;57;115;65;122
2024-04-20 02:40;59;119;64;123
2024-04-20 02:50;59;126;64;123
2024-04-20 03:00;58;118;64;122
2024-04-20 03:10;56;119;62;118
2024-04-20 03:20;53;133;62;115
2024-04-20 03:30;49;117;61;110
2024-04-20 03:40;45;94;61;106
2024-04-20 03:50;40;103;61;101
2024-04-20 04:00;36;111;61;97
2024-04-20 04:10;31;98;62;93
2024-04-20 04:20;26;88;61;87
2024-04-20 04:30;21;86;61;82
2024-04-20 04:40;17;78;60;77
2024-04-20 04:50;12;73;57;69
2024-04-20 05:00;7;74;56;63
2024-04-20 05:10;3;67;53;56
2024-04-20 05:20;-1;57;49;48
2024-04-20 05:30;-5;49;46;41
2024-04-20 05:40;-8;43;41;33
2024-04-20 05:50;-11;39;37;26
2024-04-20 06:00;-14;34;33;19
2024-04-20 06:10;-17;27;29;12
2024-04-20 06:20;-19;17;24;5
2024-04-20 06:30;-22;12;21;-1
2024-04-20 06:40;-24;7;17;-7
2024-04-20 06:50;-26;3;15;-11
2024-04-20 07:00;-28;1;31;3
2024-04-20 07:10;-30;-3;30;0
2024-04-20 07:20;-33;-11;30;-3
2024-04-20 07:30;-35;-12;31;-4
2024-04-20 07:40;-37;-7;31;-6
2024-04-20 07:50;-40;-9;33;-7
2024-04-20 08:00;-42;-11;34;-8
2024-04-20 08:10;-45;-15;35;-10
2024-04-20 08:20;-48;-18;36;-12
2024-04-20 08:30;-51;-16;36;-15
2024-04-20 08:40;-54;-19;37;-17
2024-04-20 08:50;-58;-25;38;-20
2024-04-20 09:00;-61;-26;39;-22
2024-04-20 09:10;-64;-25;39;-25
2024-04-20 09:20;-67;-28;40;-27
2024-04-20 09:30;-69;-29;41;-28
2024-04-20 09:40;-71;-31;41;-30
2024-04-20 09:50;-73;-34;42;-31
2024-04-20 10:00;-74;-34;42;-32
2024-04-20 10:10;-75;-31;42;-33
2024-04-20 10:20;-75;-36;41;-34
2024-04-20 10:30;-75;-38;40;-35
2024-04-20 10:40;-75;-34;40;-35
2024-04-20 10:50;-74;-31;39;-35
2024-04-20 11:00;-73;-36;37;-36
2024-04-20 11:10;-71;-33;36;-35
2024-04-20 11:20;-68;-29;34;-34
2024-04-20 11:30;-65;-30;32;-33
2024-04-20 11:40;-61;-27;29;-32
2024-04-20 11:50;-57;-21;27;-30
2024-04-20 12:00;-51;-20;23;-28
2024-04-20 12:10;-45;-20;19;-26
2024-04-20 12:20;-38;-17;15;-23
2024-04-20 12:30;-30;-11;11;-19
2024-04-20 12:40;-21;-7;6;-15
2024-04-20 12:50;-12;-5;2;-10
2024-04-20 13:00;-2;4;4;2
2024-04-20 13:10;8;12;2;10
2024-04-20 13:20;18;21;1;19
2024-04-20 13:30;29;35;1;30
2024-04-20 13:40;40;45;4;44
2024-04-20 13:50;50;54;6;56
2024-04-20 14:00;59;70;11;70
2024-04-20 14:10;68;84;13;81
2024-04-20 14:20;75;90;17;92
2024-04-20 14:30;81;100;18;99
2024-04-20 14:40;86;108;21;107
2024-04-20 14:50;89;114;24;113
2024-04-20 15:00;91;119;26;117
2024-04-20 15:10;91;120;27;118
2024-04-20 15:20;91;122;28;119
2024-04-20 15:30;89;120;27;116
2024-04-20 15:40;87;116;27;114
2024-04-20 15:50;84;115;27;111
2024-04-20 16:00;81;110;27;108
2024-04-20 16:10;78;105;26;104
2024-04-20 16:20;74;102;26;100
2024-04-20 16:30;71;96;25;96
2024-04-20 16:40;67;90;24;91
2024-04-20 16:50;63;87;22;85
2024-04-20 17:00;59;83;22;81
2024-04-20 17:10;55;77;20;75
2024-04-20 17:20;51;70;18;69
2024-04-20 17:30;47;65;16;63
2024-04-20 17:40;42;62;15;57
2024-04-20 17:50;38;53;13;51
2024-04-20 18:00;33;42;11;44
2024-04-20 18:10;29;35;7;36
2024-04-20 18:20;25;28;3;28
2024-04-20 18:30;20;21;2;22
2024-04-20 18:40;16;16;0;16
2024-04-20 18:50;12;10;-3;9
2024-04-20 19:00;8;0;-3;5
2024-04-20 19:10;4;-5;-5;-1
2024-04-20 19:20;0;-6;-4;-4
2024-04-20 19:30;-4;-9;-4;-8
2024-04-20 19:40;-8;-15;-1;-9
2024-04-20 19:50;-12;-19;0;-12
2024-04-20 20:00;-15;-21;2;-13
2024-04-20 20:10;-19;-27;5;-14
2024-04-20 20:20;-23;-27;8;-15
2024-04-20 20:30;-26;-27;10;-16
2024-04-20 20:40;-30;-31;12;-18
2024-04-20 20:50;-34;-33;13;-21
2024-04-20 21:00;-38;-34;15;-23
2024-04-20 21:10;-42;-39;16;-26
2024-04-20 21:20;-46;-42;18;-28
2024-04-20 21:30;-50;-42;19;-31
2024-04-20 21:40;-54;-45;21;-33
2024-04-20 21:50;-57;-46;21;-36
2024-04-20 22:00;-60;-48;21;-39
2024-04-20 22:10;-63;-50;22;-41
2024-04-20 22:20;-66;-50;22;-44
2024-04-20 22:30;-68;-53;21;-47
2024-04-20 22:40;-70;-55;21;-49
2024-04-20 22:50;-72;-54;22;-50
2024-04-20 23:00;-73;-51;22;-51
2024-04-20 23:10;-73;-56;21;-52
2024-04-20 23:20;-74;-59;22;-52
2024-04-20 23:30;-73;-55;20;-53
2024-04-20 23:40;-73;-51;20;-53
2024-04-20 23:50;-72;-56;19;-53
2024-04-21 00:00;-70;-56;16;-54
2024-04-21 00:10;-68;-53;15;-53
2024-04-21 00:20;-65;-55;13;-52
2024-04-21 00:30;-62;-53;10;-52
2024-04-21 00:40;-57;-46;6;-51
2024-04-21 00:50;-52;-49;3;-49
2024-04-21 01:00;-47;-46;1;-46
2024-04-21 01:10;-40;-34;-2;-42
2024-04-21 01:20;-32;-32;-6;-38
2024-04-21 01:30;-22;-35;-10;-32
2024-04-21 01:40;-12;-24;-12;-24
2024-04-21 01:50;-1;-10;-12;-13
2024-04-21 02:00;10;-2;-9;1
2024-04-21 02:10;21;18;-4;17
2024-04-21 02:20;32;42;0;32
2024-04-21 02:30;42;41;7;49
2024-04-21 02:40;51;51;11;62
2024-04-21 02:50;59;83;15;74
2024-04-21 03:00;65;91;17;82
2024-04-21 03:10;68;79;21;89
2024-04-21 03:20;70;85;22;92
2024-04-21 03:30;71;100;22;93
2024-04-21 03:40;70;99;22;92
2024-04-21 03:50;67;93;22;89
2024-04-21 04:00;64;102;21;85
2024-04-21 04:10;60;96;19;79
2024-04-21 04:20;55;79;19;74
2024-04-21 04:30;51;78;17;68
2024-04-21 04:40;46;80;17;63
2024-04-21 04:50;41;69;17;58
2024-04-21 05:00;36;61;18;54
2024-04-21 05:10;31;59;18;49
2024-04-21 05:20;25;53;18;43
2024-04-21 05:30;20;46;17;37
2024-04-21 05:40;15;34;16;31
2024-04-21 05:50;11;23;14;25
2024-04-21 06:00;6;19;13;19
2024-04-21 06:10;2;17;10;12
2024-04-21 06:20;-2;7;7;5
2024-04-21 06:30;-5;-4;3;-2
2024-04-21 06:40;-8;-11;-2;-10
2024-04-21 06:50;-11;-19;-6;-17
2024-04-21 07:00;-13;-23;-1;-14
2024-04-21 07:10;-15;-25;-5;-20
2024-04-21 07:20;-17;-31;-9;-26
2024-04-21 07:30;-19;-36;-11;-30
2024-04-21 07:40;-21;-42;-12;-33
2024-04-21 07:50;-23;-45;-13;-36
2024-04-21 08:00;-25;-48;-14;-39
2024-04-21 08:10;-28;-51;-14;-42
2024-04-21 08:20;-30;-51;-15;-45
2024-04-21 08:30;-33;-53;-13;-46
2024-04-21 08:40;-37;-54;-10;-47
2024-04-21 08:50;-41;-57;-9;-50
2024-04-21 09:00;-45;-61;-7;-52
2024-04-21 09:10;-49;-63;-6;-55
2024-04-21 09:20;-53;-65;-5;-58
2024-04-21 09:30;-57;-69;-5;-62
2024-04-21 09:40;-61;-73;-5;-66
2024-04-21 09:50;-65;-74;-3;-68
2024-04-21 10:00;-68;-75;-3;-71
2024-04-21 10:10;-71;-79;-2;-73
2024-04-21 10:20;-74;-81;-1;-75
2024-04-21 10:30;-76;-80;-1;-77
2024-04-21 10:40;-77;-82;-1;-78
2024-04-21 10:50;-79;-87;-2;-81
2024-04-21 11:00;-79;-86;-4;-83
2024-04-21 11:10;-80;-85;-4;-84
2024-04-21 11:20;-80;-87;-4;-84
2024-04-21 11:30;-80;-86;-4;-84
2024-04-21 11:40;-79;-83;-6;-85
2024-04-21 11:50;-78;-81;-6;-84
2024-04-21 12:00;-76;-81;-7;-83
2024-04-21 12:10;-74;-78;-7;-81
2024-04-21 12:20;-71;-75;-8;-79
2024-04-21 12:30;-67;-74;-10;-77
2024-04-21 12:40;-62;-70;-13;-75
2024-04-21 12:50;-56;-67;-15;-71
2024-04-21 13:00;-49;-61;-17;-66
2024-04-21 13:10;-41;-56;-20;-61
2024-04-21 13:20;-32;-52;-24;-56
2024-04-21 13:30;-22;-43;-27;-49
2024-04-21 13:40;-11;-34;-31;-42
2024-04-21 13:50;1;-24;-33;-32
2024-04-21 14:00;14;-15;-35;-21
2024-04-21 14:10;26;-3;-32;-6
2024-04-21 14:20;39;13;-29;10
2024-04-21 14:30;51;27;-24;27
2024-04-21 14:40;62;41;-19;43
2024-04-21 14:50;72;55;-15;57
2024-04-21 15:00;80;65;-11;69
2024-04-21 15:10;87;73;-8;79
2024-04-21 15:20;92;82;-6;86
2024-04-21 15:30;95;88;-4;91
2024-04-21 15:40;96;89;-3;93
2024-04-21 15:50;96;89;-4;92
2024-04-21 16:00;95;90;-5;90
2024-04-21 16:10;93;88;-6;87
2024-04-21 16:20;90;84;-7;83
2024-04-21 16:30;87;80;-8;79
2024-04-21 16:40;83;78;-8;75
2024-04-21 16:50;79;75;-9;70
2024-04-21 17:00;76;69;-10;66
2024-04-21 17:10;72;65;-10;62
2024-04-21 17:20;68;61;-10;58
2024-04-21 17:30;64;58;-11;53
2024-04-21 17:40;60;52;-12;48
2024-04-21 17:50;56;47;-12;44
2024-04-21 18:00;52;41;-15;37
2024-04-21 18:10;48;36;-16;32
2024-04-21 18:20;43;29;-17;26
2024-04-21 18:30;39;24;-19;20
2024-04-21 18:40;35;21;-20;15
2024-04-21 18:50;30;13;-21;9
2024-04-21 19:00;26;3;-22;4
2024-04-21 19:10;22;-1;-25;-3
2024-04-21 19:20;17;-6;-25;-8
2024-04-21 19:30;13;-13;-27;-14
2024-04-21 19:40;9;-17;-27;-18
2024-04-21 19:50;6;-20;-30;-24
2024-04-21 20:00;2;-25;-29;-27
2024-04-21 20:10;-2;-30;-29;-31
2024-04-21 20:20;-6;-35;-29;-35
2024-04-21 20:30;-9;-39;-29;-38
2024-04-21 20:40;-13;-41;-28;-41
2024-04-21 20:50;-17;-45;-27;-44
2024-04-21 21:00;-21;-50;-26;-47
2024-04-21 21:10;-26;-54;-24;-50
2024-04-21 21:20;-30;-58;-24;-54
2024-04-21 21:30;-34;-62;-23;-57
2024-04-21 21:40;-39;-66;-21;-60
2024-04-21 21:50;-43;-67;-21;-64
2024-04-21 22:00;-48;-71;-18;-66
2024-04-21 22:10;-52;-75;-18;-70
2024-04-21 22:20;-56;-79;-17;-73
2024-04-21 22:30;-59;-81;-17;-76
2024-04-21 22:40;-62;-84;-17;-79
2024-04-21 22:50;-65;-86;-17;-82
2024-04-21 23:00;-68;-88;-18;-86
2024-04-21 23:10;-70;-89;-17;-87
2024-04-21 23:20;-72;-89;-16;-88
2024-04-21 23:30;-73;-90;-15;-88
2024-04-21 23:40;-74;-90;-14;-88
2024-04-21 23:50;-75;-89;-13;-88
2024-04-22 00:00;-75;-87;-12;-87
2024-04-22 00:10;-75;-85;-12;-87
2024-04-22 00:20;-75;-83;-12;-87
2024-04-22 00:30;-74;-84;-12;-86
2024-04-22 00:40;-73;-83;-13;-86
2024-04-22 00:50;-71;-82;-14;-85
2024-04-22 01:00;-69;-80;-14;-83
2024-04-22 01:10;-66;-77;-16;-82
2024-04-22 01:20;-61;-74;-19;-80
2024-04-22 01:30;-56;-70;-21;-77
2024-04-22 01:40;-49;-69;-26;-75
2024-04-22 01:50;-41;-62;-29;-70
2024-04-22 02:00;-31;-57;-33;-64
2024-04-22 02:10;-20;-50;-36;-56
2024-04-22 02:20;-8;-39;-37;-45
2024-04-22 02:30;5;-26;-35;-30
2024-04-22 02:40;18;-13;-32;-14
2024-04-22 02:50;31;2;-25;6
2024-04-22 03:00;43;19;-21;22
2024-04-22 03:10;54;33;-18;36
2024-04-22 03:20;63;47;-13;50
2024-04-22 03:30;70;58;-10;60
2024-04-22 03:40;75;67;-7;68
2024-04-22 03:50;79;73;-8;71
2024-04-22 04:00;80;77;-6;74
2024-04-22 04:10;79;77;-6;73
2024-04-22 04:20;77;76;-6;71
2024-04-22 04:30;74;74;-7;67
2024-04-22 04:40;70;69;-8;62
2024-04-22 04:50;65;64;-8;57
2024-04-22 05:00;60;60;-9;51
2024-04-22 05:10;55;54;-8;47
2024-04-22 05:20;50;48;-8;42
2024-04-22 05:30;44;44;-6;38
2024-04-22 05:40;39;40;-7;32
2024-04-22 05:50;34;34;-8;26
2024-04-22 06:00;28;27;-7;21
2024-04-22 06:10;23;22;-7;16
2024-04-22 06:20;18;16;-7;11
2024-04-22 06:30;13;9;-8;5
2024-04-22 06:40;8;3;-8;0
2024-04-22 06:50;4;-3;-10;-6
2024-04-22 07:00;0;-9;-11;-11
2024-04-22 07:10;-3;-15;-13;-16
2024-04-22 07:20;-6;-19;-14;-20
2024-04-22 07:30;-8;-22;-16;-24
2024-04-22 07:40;-10;-27;-19;-29
2024-04-22 07:50;-12;-31;-21;-33
2024-04-22 08:00;-14;-34;-22;-36
2024-04-22 08:10;-15;-38;-23;-38
2024-04-22 08:20;-17;-40;-24;-41
2024-04-22 08:30;-18;-42;-24;-42
2024-04-22 08:40;-21;-43;-22;-43
2024-04-22 08:50;-23;-44;-22;-45
2024-04-22 09:00;-26;-45;-19;-45
2024-04-22 09:10;-30;-48;-17;-47
2024-04-22 09:20;-34;-51;-16;-50
2024-04-22 09:30;-38;-54;-17;-55
2024-04-22 09:40;-43;-58;-16;-59
2024-04-22 09:50;-48;-62;-14;-62
2024-04-22 10:00;-53;-64;-12;-65
2024-04-22 10:10;-58;-69;-10;-68
2024-04-22 10:20;-63;-74;-9;-72
2024-04-22 10:30;-67;-77;-8;-75
2024-04-22 10:40;-70;-80;-8;-78
2024-04-22 10:50;-73;-84;-8;-81
2024-04-22 11:00;-76;-87;-8;-84
2024-04-22 11:10;-77;-90;-9;-86
2024-04-22 11:20;-79;-93;-9;-88
2024-04-22 11:30;-79;-94;-10;-89
2024-04-22 11:40;-80;-94;-10;-90
2024-04-22 11:50;-80;-94;-11;-91
2024-04-22 12:00;-80;-94;-11;-91
2024-04-22 12:10;-79;-92;-11;-90
2024-04-22 12:20;-79;-90;-11;-90
2024-04-22 12:30;-78;-89;-12;-90
2024-04-22 12:40;-77;-86;-12;-89
2024-04-22 12:50;-75;-84;-13;-88
2024-04-22 13:00;-72;-81;-9;-81
2024-04-22 13:10;-69;-78;-9;-78
2024-04-22 13:20;-65;-75;-10;-75
2024-04-22 13:30;-59;-69;-13;-72
2024-04-22 13:40;-53;-64;-15;-68
2024-04-22 13:50;-44;-59;-19;-63
2024-04-22 14:00;-35;-52;-22;-57
2024-04-22 14:10;-23;-44;-27;-50
2024-04-22 14:20;-11;-34;-29;-40
2024-04-22 14:30;2;-23;-29;-27
2024-04-22 14:40;16;-6;-28;-12
2024-04-22 14:50;30;9;-23;7
2024-04-22 15:00;44;26;-18;26
2024-04-22 15:10;57;41;-13;44
2024-04-22 15:20;69;55;-10;59
2024-04-22 15:30;79;67;-8;71
2024-04-22 15:40;87;78;-6;81
2024-04-22 15:50;93;87;-4;89
2024-04-22 16:00;97;93;-4;93
2024-04-22 16:10;99;97;-4;95
2024-04-22 16:20;99;97;-4;95
2024-04-22 16:30;98;94;-6;92
2024-04-22 16:40;95;92;-6;89
2024-04-22 16:50;92;90;-6;86
2024-04-22 17:00;88;84;-7;81
2024-04-22 17:10;84;80;-7;77
2024-04-22 17:20;80;77;-6;74
2024-04-22 17:30;76;73;-6;70
2024-04-22 17:40;72;69;-5;67
2024-04-22 17:50;68;65;-5;63
2024-04-22 18:00;64;60;-6;58
2024-04-22 18:10;60;56;-7;53
2024-04-22 18:20;56;51;-9;47
2024-04-22 18:30;52;44;-11;41
2024-04-22 18:40;48;38;-11;37
2024-04-22 18:50;43;34;-11;32
2024-04-22 19:00;39;27;-14;25
2024-04-22 19:10;35;20;-15;20
2024-04-22 19:20;31;14;-17;14
2024-04-22 19:30;27;9;-18;9